Regional Weather Roundup
Issued by NWS

Home | Current Version | Previous Version | Graphics & Text | Print | Product List | Glossary On
Versions: 1 2 3 4 5 6 7 8 9 10 11 12 13 14 15 16 17 18 19 20 21 22 23 24 25 26 27 28 29 30 31 32 33 34 35 36 37 38 39 40 41 42 43 44 45 46 47 48 49 50
000
ASUS43 KFSD 311102
RWRSD

WEATHER ROUNDUP FOR SOUTH DAKOTA
NATIONAL WEATHER SERVICE SIOUX FALLS SD
600 AM CDT MON AUG 31 2015

NOTE: "FAIR" INDICATES FEW OR NO CLOUDS BELOW 12,000 FEET WITH NO
SIGNIFICANT WEATHER AND/OR OBSTRUCTIONS TO VISIBILITY.


SDZ001>005-009-010-012>017-311200-
NORTHWEST AND NORTH CENTRAL SOUTH DAKOTA

CITY           SKY/WX    TMP DP  RH WIND       PRES   REMARKS
FAITH            N/A     67  54  63 NW13      29.75R
MOBRIDGE       CLOUDY    70  58  65 S8        29.64S
$$

SDZ012>016-024>037-041>051-057-063-072>074-311200-
SOUTHWEST AND SOUTH CENTRAL SOUTH DAKOTA

CITY           SKY/WX    TMP DP  RH WIND       PRES   REMARKS
RAPID CTY ARPT CLOUDY    76  50  40 W12       29.79R
PIERRE         MOCLDY    71  52  50 S12       29.67S
CUSTER         MOCLDY    67  44  43 SW7       29.99R
ELLSWORTH AFB  CLOUDY    73  51  46 W13       29.79R
PHILIP         CLOUDY    75  52  44 W10       29.70S
PINE RIDGE     MOCLDY    71  50  47 SW7       29.86R
WINNER         FAIR      73  54  51 S23G33    29.76S
$$

SDZ004>011-016>023-039-040-311200-
NORTHEAST SOUTH DAKOTA

CITY           SKY/WX    TMP DP  RH WIND       PRES   REMARKS
ABERDEEN       CLEAR     67  62  84 S14G22    29.69F
WATERTOWN      CLEAR     65  61  87 S15       29.81S
BROOKINGS      PTCLDY    64  61  88 S13G18    29.87F
$$

SDZ017-020-022-023-036>040-048>070-311200-
SOUTHEAST SOUTH DAKOTA

CITY           SKY/WX    TMP DP  RH WIND       PRES   REMARKS
SIOUX FALLS    PTCLDY    65  63  93 S10       29.89S
HURON          CLEAR     66  63  90 S12G22    29.76F
MITCHELL       CLEAR     68  64  87 S13       29.82S
YANKTON        CLEAR     66  63  88 S8        29.87F
$$

ABBREVIATIONS USED IN REMARKS
   TC - TEMPERATURE IN CELSIUS
  WCI - WIND CHILL INDEX
   HX - HEAT INDEX
  VSB - VISIBILITY




USA.gov is the U.S. government's official web portal to all federal, state and local government web resources and services.